This is the latest recevied weather packets stored in our database for station/object KC3BHK-2. If no packets are shown the sender has not sent any weather packets the latest 10 day(s).
| Time | Temp. | Humidity | Pressure | Rain* | Wind** | Luminosity | Snow |
|---|---|---|---|---|---|---|---|
| 1787760772 | 28.89° C | - | - | 0 mm | 2.24 m/s, 167° | - | - |
| 1787760468 | 28.89° C | - | - | 0 mm | 3.13 m/s, 131° | - | - |
| 1787760163 | 28.33° C | - | - | 0 mm | 0.89 m/s, 340° | - | - |
| 1787759858 | 28.89° C | - | - | 0 mm | 2.24 m/s, 127° | - | - |
| 1787759245 | 28.33° C | - | - | 0 mm | 3.13 m/s, 146° | - | - |
| 1787758941 | 28.33° C | - | - | 0 mm | 1.79 m/s, 122° | - | - |
| 1787758636 | 27.78° C | - | - | 0 mm | 2.68 m/s, 176° | - | - |
| 1787758331 | 27.78° C | - | - | 0 mm | 2.24 m/s, 110° | - | - |
| 1787758026 | 27.78° C | - | - | 0 mm | 2.68 m/s, 194° | - | - |
| 1787757719 | 28.33° C | - | - | 0 mm | 0 m/s | - | - |
| 1787757414 | 27.78° C | - | - | 0 mm | 0.89 m/s, 113° | - | - |
| 1787757109 | 27.22° C | - | - | 0 mm | 0.45 m/s, 69° | - | - |
| 1787756500 | 27.78° C | - | - | 0 mm | 0.89 m/s, 111° | - | - |
| 1787756195 | 27.78° C | - | - | 0 mm | 0.89 m/s, 110° | - | - |
| 1787755887 | 27.78° C | - | - | 0 mm | 0.45 m/s, 197° | - | - |
| 1787755278 | 26.67° C | - | - | 0 mm | 0.45 m/s, 39° | - | - |
| 1787754973 | 25.56° C | - | - | 0 mm | 0.45 m/s, 129° | - | - |
| 1787754668 | 25.56° C | - | - | 0 mm | 0.45 m/s, 165° | - | - |
| 1787754363 | 23.89° C | - | - | 0 mm | 0 m/s | - | - |
| 1787754055 | 25° C | - | - | 0 mm | 0 m/s | - | - |
| 1787753751 | 24.44° C | - | - | 0 mm | 0.45 m/s, 129° | - | - |
| 1787753446 | 23.89° C | - | - | 0 mm | 0 m/s | - | - |
| 1787753141 | 23.89° C | - | - | 0 mm | 0.45 m/s, 139° | - | - |
| 1787752840 | 24.44° C | - | - | 0 mm | 0 m/s | - | - |
| 1787752532 | 23.33° C | - | - | 0 mm | 0 m/s | - | - |
* Rain latest hour (hover to see other rain measurements)
** Current wind speed in m/s (hover to see current wind gust speed)